• In Netherlands
  • List of Countries
  • For 7 days
  • Water Temperature
  • Satellite Maps
  • Weather Map
  • Weather Widgets
  • user-avatar
    Login

    Hourly Weather Orange Walk

    Today, 23 March, Thursday

    Time Temperature Precipitation Wind Pressure Humidity
    00:00 +20°C° 0 mm 2 mps 761 mmHg 94%
    01:00 +20°C° 0 mm 2 mps 761 mmHg 94%
    02:00 +20°C° 0 mm 2 mps 761 mmHg 95%
    03:00 +21°C° 0 mm 1 mps 761 mmHg 95%
    04:00 +21°C° 0 mm 1 mps 761 mmHg 96%
    05:00 +21°C° 0 mm 1 mps 761 mmHg 97%
    06:00 +20°C° 0 mm 1 mps 762 mmHg 97%
    07:00 +23°C° 0 mm 2 mps 762 mmHg 84%
    08:00 +26°C° 0 mm 2 mps 762 mmHg 71%
    09:00 +28°C° 0 mm 2 mps 763 mmHg 58%
    10:00 +30°C° 0 mm 2 mps 762 mmHg 50%
    11:00 +31°C° 0 mm 2 mps 762 mmHg 42%
    12:00 +34°C° 0 mm 2 mps 762 mmHg 33%
    13:00 +34°C° 0 mm 3 mps 761 mmHg 33%
    14:00 +34°C° 0 mm 3 mps 761 mmHg 33%
    15:00 +34°C° 0 mm 3 mps 760 mmHg 32%
    16:00 +31°C° 0 mm 3 mps 760 mmHg 40%
    17:00 +29°C° 0 mm 3 mps 760 mmHg 47%
    18:00 +27°C° 0 mm 2 mps 760 mmHg 54%
    19:00 +26°C° 0 mm 2 mps 761 mmHg 63%
    20:00 +24°C° 0 mm 2 mps 761 mmHg 71%
    21:00 +21°C° 0 mm 2 mps 762 mmHg 80%
    22:00 +21°C° 0 mm 2 mps 762 mmHg 85%
    23:00 +20°C° 0 mm 2 mps 762 mmHg 90%

    Tomorrow, 24 March, Friday

    Time Temperature Precipitation Wind Pressure Humidity
    00:00 +19°C° 0 mm 2 mps 762 mmHg 95%
    01:00 +19°C° 0 mm 1 mps 762 mmHg 96%
    02:00 +18°C° 0 mm 1 mps 761 mmHg 97%
    03:00 +18°C° 0 mm 1 mps 761 mmHg 98%
    04:00 +18°C° 0 mm 1 mps 761 mmHg 98%
    05:00 +18°C° 0 mm 1 mps 761 mmHg 98%
    06:00 +18°C° 0 mm 1 mps 761 mmHg 98%
    07:00 +21°C° 0 mm 2 mps 762 mmHg 84%
    08:00 +25°C° 0 mm 2 mps 762 mmHg 69%
    09:00 +29°C° 0 mm 2 mps 762 mmHg 55%
    10:00 +30°C° 0 mm 3 mps 762 mmHg 49%
    11:00 +31°C° 0 mm 3 mps 762 mmHg 43%
    12:00 +33°C° 0 mm 3 mps 761 mmHg 37%
    13:00 +33°C° 0 mm 3 mps 761 mmHg 37%
    14:00 +33°C° 0 mm 3 mps 760 mmHg 37%
    15:00 +33°C° 0 mm 3 mps 759 mmHg 36%
    16:00 +31°C° 0 mm 3 mps 759 mmHg 44%
    17:00 +29°C° 0 mm 3 mps 759 mmHg 52%
    18:00 +27°C° 0 mm 2 mps 759 mmHg 60%
    19:00 +25°C° 0 mm 2 mps 760 mmHg 69%
    20:00 +24°C° 0 mm 2 mps 760 mmHg 78%
    21:00 +21°C° 0 mm 2 mps 761 mmHg 87%
    22:00 +21°C° 0 mm 2 mps 761 mmHg 90%
    23:00 +20°C° 0 mm 2 mps 761 mmHg 93%

    Day after tomorrow, 25 March, Saturday

    Time Temperature Precipitation Wind Pressure Humidity
    00:00 +19°C° 0 mm 2 mps 761 mmHg 95%
    01:00 +19°C° 0 mm 2 mps 760 mmHg 96%
    02:00 +20°C° 0 mm 1 mps 760 mmHg 97%
    03:00 +20°C° 0 mm 1 mps 759 mmHg 97%
    04:00 +20°C° 0 mm 1 mps 759 mmHg 98%
    05:00 +20°C° 0 mm 1 mps 760 mmHg 98%
    06:00 +20°C° 0 mm 1 mps 760 mmHg 98%
    07:00 +23°C° 0 mm 2 mps 760 mmHg 84%
    08:00 +26°C° 0 mm 2 mps 761 mmHg 69%
    09:00 +29°C° 0 mm 2 mps 761 mmHg 54%
    10:00 +30°C° 0 mm 2 mps 761 mmHg 48%
    11:00 +33°C° 0 mm 3 mps 761 mmHg 42%
    12:00 +34°C° 0 mm 3 mps 760 mmHg 37%
    13:00 +34°C° 0 mm 3 mps 759 mmHg 36%
    14:00 +34°C° 0 mm 3 mps 758 mmHg 35%
    15:00 +34°C° 0 mm 3 mps 758 mmHg 34%
    16:00 +31°C° 0 mm 3 mps 758 mmHg 42%
    17:00 +29°C° 0 mm 2 mps 758 mmHg 49%
    18:00 +27°C° 0 mm 2 mps 758 mmHg 57%
    19:00 +25°C° 0 mm 2 mps 758 mmHg 68%
    20:00 +23°C° 0 mm 2 mps 759 mmHg 79%
    21:00 +22°C° 0 mm 1 mps 759 mmHg 90%
    22:00 +21°C° 0 mm 1 mps 759 mmHg 92%
    23:00 +21°C° 0 mm 1 mps 759 mmHg 95%

    26 March, Sunday

    Time Temperature Precipitation Wind Pressure Humidity
    00:00 +20°C° 0 mm 1 mps 759 mmHg 98%
    01:00 +20°C° 0 mm 1 mps 758 mmHg 98%
    02:00 +20°C° 0 mm 1 mps 758 mmHg 99%
    03:00 +19°C° 0 mm 1 mps 758 mmHg 99%
    04:00 +19°C° 0 mm 1 mps 758 mmHg 99%
    05:00 +18°C° 0 mm 1 mps 758 mmHg 99%
    06:00 +18°C° 0 mm 1 mps 758 mmHg 99%
    07:00 +22°C° 0 mm 1 mps 759 mmHg 86%
    08:00 +26°C° 0 mm 2 mps 759 mmHg 72%
    09:00 +29°C° 0 mm 2 mps 760 mmHg 59%
    10:00 +31°C° 0 mm 2 mps 759 mmHg 53%
    11:00 +32°C° 0 mm 2 mps 759 mmHg 47%
    12:00 +34°C° 0 mm 2 mps 758 mmHg 41%
    13:00 +34°C° 0 mm 3 mps 758 mmHg 40%
    14:00 +34°C° 0 mm 3 mps 757 mmHg 39%
    15:00 +35°C° 0 mm 3 mps 756 mmHg 38%
    16:00 +33°C° 0 mm 3 mps 756 mmHg 45%
    17:00 +30°C° 0 mm 2 mps 756 mmHg 52%
    18:00 +28°C° 0 mm 2 mps 756 mmHg 60%
    19:00 +26°C° 0 mm 2 mps 757 mmHg 69%
    20:00 +24°C° 0 mm 2 mps 758 mmHg 79%
    21:00 +21°C° 0 mm 2 mps 758 mmHg 89%
    22:00 +21°C° 0 mm 2 mps 758 mmHg 92%
    23:00 +20°C° 0 mm 2 mps 758 mmHg 94%

    27 March, Monday

    Time Temperature Precipitation Wind Pressure Humidity
    00:00 +20°C° 0 mm 2 mps 757 mmHg 97%
    01:00 +21°C° 0 mm 1 mps 757 mmHg 98%
    02:00 +21°C° 0 mm 1 mps 757 mmHg 98%
    03:00 +20°C° 0 mm 1 mps 756 mmHg 98%
    04:00 +21°C° 0 mm 1 mps 757 mmHg 98%
    05:00 +21°C° 0 mm 1 mps 757 mmHg 98%
    06:00 +21°C° 0 mm 1 mps 757 mmHg 98%
    07:00 +24°C° 0 mm 2 mps 757 mmHg 85%
    08:00 +27°C° 0 mm 2 mps 758 mmHg 72%
    09:00 +30°C° 0 mm 3 mps 758 mmHg 59%
    10:00 +31°C° 0 mm 3 mps 758 mmHg 55%
    11:00 +33°C° 0 mm 3 mps 757 mmHg 50%
    12:00 +34°C° 0 mm 3 mps 757 mmHg 46%
    13:00 +34°C° 0 mm 3 mps 756 mmHg 45%
    14:00 +34°C° 0 mm 3 mps 755 mmHg 44%
    15:00 +34°C° 0 mm 3 mps 754 mmHg 43%
    16:00 +33°C° 0 mm 3 mps 755 mmHg 50%
    17:00 +30°C° 0 mm 3 mps 755 mmHg 57%
    18:00 +28°C° 0 mm 2 mps 755 mmHg 64%
    19:00 +26°C° 0 mm 2 mps 755 mmHg 74%
    20:00 +25°C° 0 mm 2 mps 756 mmHg 83%
    21:00 +23°C° 0 mm 2 mps 756 mmHg 92%
    22:00 +21°C° 0 mm 2 mps 756 mmHg 94%
    23:00 +21°C° 0 mm 2 mps 756 mmHg 96%

    28 March, Tuesday

    Time Temperature Precipitation Wind Pressure Humidity
    00:00 +21°C° 0 mm 1 mps 756 mmHg 98%
    01:00 +21°C° 0 mm 1 mps 756 mmHg 98%
    02:00 +21°C° 0 mm 1 mps 756 mmHg 98%
    03:00 +22°C° 0 mm 1 mps 756 mmHg 97%
    04:00 +22°C° 0 mm 1 mps 756 mmHg 98%
    05:00 +22°C° 0 mm 1 mps 756 mmHg 98%
    06:00 +22°C° 0 mm 1 mps 757 mmHg 98%
    07:00 +24°C° 0 mm 2 mps 757 mmHg 86%
    08:00 +27°C° 0 mm 2 mps 758 mmHg 74%
    09:00 +30°C° 0 mm 3 mps 758 mmHg 62%
    10:00 +31°C° 0 mm 3 mps 758 mmHg 57%
    11:00 +33°C° 0 mm 3 mps 757 mmHg 52%
    12:00 +34°C° 0 mm 3 mps 757 mmHg 46%
    13:00 +35°C° 0 mm 3 mps 756 mmHg 45%
    14:00 +35°C° 0 mm 3 mps 755 mmHg 44%
    15:00 +35°C° 0 mm 3 mps 755 mmHg 42%
    16:00 +33°C° 0 mm 3 mps 755 mmHg 50%
    17:00 +31°C° 0 mm 3 mps 755 mmHg 57%
    18:00 +29°C° 0 mm 2 mps 755 mmHg 64%
    19:00 +27°C° 0 mm 2 mps 756 mmHg 73%
    20:00 +26°C° 0 mm 2 mps 756 mmHg 83%
    21:00 +24°C° 0 mm 2 mps 757 mmHg 92%
    22:00 +24°C° 0 mm 2 mps 757 mmHg 94%
    23:00 +23°C° 0 mm 2 mps 757 mmHg 96%
    Show more